Weather History for Crestview, FL

Change the Weather History Date:

Monday, May 27, 2013

  Actual Average Record
Temperature  
Mean Temperature 76 °F -  
Max Temperature 91 °F 87 °F 99 °F (2012)
Min Temperature 60 °F 64 °F 48 °F (1979)
Cooling Degree Days 10    
Growing Degree Days 26 (Base 50)    
Moisture  
Dew Point 59 °F    
Average Humidity 76    
Maximum Humidity 100    
Minimum Humidity 27    
Precipitation  
Precipitation 0.00 in - - ()
Sea Level Pressure  
Sea Level Pressure 30.15 in    
Wind  
Wind Speed 1 mph (SSE)    
Max Wind Speed 15 mph    
Max Gust Speed 22 mph    
Visibility 5 miles    
Events Fog    
Averages and records for this station are not official NWS values.
T = Trace of Precipitation, MM = Missing Value Source: NWS Daily Summary

Daily Weather History Graph

Daily Weather History Graph

Search for Another Location

Airport:

Trip Planner

Search our weather history database for the weather conditions in past years. The results will help you decide how hot, cold, wet, or windy it might be!

Date:

Astronomy

May. 27, 2013 Rise Set
Actual Time 5:45 AM CDT 7:41 PM CDT
Civil Twilight 5:17 AM CDT 8:08 PM CDT
Nautical Twilight 4:45 AM CDT 8:41 PM CDT
Astronomical Twilight 4:10 AM CDT 9:16 PM CDT
Moon 10:25 PM CDT (5/27) 8:19 AM CDT (5/27)
Length of Visible Light 14h 50m
Length of Day
13h 56m
Waning Gibbous, 91% of the Moon is Illuminated
May 27
Waning Gibbous
May 31
Last Quarter
Jun 8
New
Jun 16
First Quarter
Jun 23
Full

Hourly Weather History & Observations

Time (CDT) Temp. Heat Index Dew Point Humidity Pressure Visibility Wind Dir Wind Speed Gust Speed Precip Events Conditions
12:53 AM 64.9 °F - 63.0 °F 93% 30.17 in 6.0 mi Calm Calm - N/A   Clear
1:45 AM 66.2 °F - 62.6 °F 88% 30.16 in 5.0 mi Calm Calm - N/A   Partly Cloudy
1:53 AM 64.9 °F - 62.1 °F 90% 30.15 in 6.0 mi Calm Calm - N/A   Mostly Cloudy
2:10 AM 64.4 °F - 62.6 °F 94% 30.16 in 2.5 mi Calm Calm - N/A   Overcast
2:14 AM 64.4 °F - 62.6 °F 94% 30.16 in 0.8 mi Calm Calm - N/A   Mist
2:34 AM 64.4 °F - 62.6 °F 94% 30.16 in 0.8 mi Calm Calm - N/A   Mist
2:41 AM 64.4 °F - 62.6 °F 94% 30.16 in 0.8 mi Calm Calm - N/A   Mist
2:46 AM 64.4 °F - 62.6 °F 94% 30.16 in 2.5 mi Calm Calm - N/A   Mostly Cloudy
2:50 AM 64.4 °F - 62.6 °F 94% 30.16 in 5.0 mi Calm Calm - N/A   Scattered Clouds
2:53 AM 64.9 °F - 63.0 °F 93% 30.15 in 5.0 mi Calm Calm - N/A   Scattered Clouds
3:34 AM 66.2 °F - 62.6 °F 88% 30.16 in 1.8 mi Calm Calm - N/A   Clear
3:53 AM 63.0 °F - 61.0 °F 93% 30.15 in 6.0 mi Calm Calm - N/A   Clear
4:07 AM 62.6 °F - 60.8 °F 94% 30.15 in 4.0 mi Calm Calm - N/A   Scattered Clouds
4:12 AM 62.6 °F - 60.8 °F 94% 30.15 in 1.8 mi Calm Calm - N/A   Mostly Cloudy
4:18 AM 62.6 °F - 60.8 °F 94% 30.15 in 0.8 mi Calm Calm - N/A   Mist
4:26 AM 62.6 °F - 60.8 °F 94% 30.16 in 0.2 mi Calm Calm - N/A Fog Fog
4:53 AM 63.0 °F - 62.1 °F 97% 30.15 in 0.2 mi Calm Calm - N/A Fog Fog
5:13 AM 62.6 °F - 60.8 °F 94% 30.17 in 1.0 mi Calm Calm - N/A   Mist
5:20 AM 62.6 °F - 60.8 °F 94% 30.17 in 0.5 mi Calm Calm - N/A Fog Fog
5:29 AM 62.6 °F - 60.8 °F 94% 30.17 in 1.0 mi Calm Calm - N/A   Mist
5:49 AM 60.8 °F - 59.0 °F 94% 30.17 in 3.0 mi Calm Calm - N/A   Overcast
5:50 AM 61.0 °F - 59.0 °F 93% 30.17 in 3.0 mi Calm Calm - N/A   Overcast
5:54 AM 60.8 °F - 59.0 °F 94% 30.17 in 1.5 mi Calm Calm - N/A   Overcast
6:02 AM 60.8 °F - 60.8 °F 100% 30.18 in 0.2 mi Calm Calm - N/A Fog Fog
6:13 AM 62.6 °F - 60.8 °F 94% 30.18 in 0.5 mi Calm Calm - N/A Fog Fog
6:22 AM 62.6 °F - 60.8 °F 94% 30.18 in 1.2 mi Calm Calm - N/A   Scattered Clouds
6:24 AM 62.6 °F - 60.8 °F 94% 30.18 in 4.0 mi Calm Calm - N/A   Scattered Clouds
6:53 AM 64.9 °F - 63.0 °F 93% 30.19 in 6.0 mi East 3.5 mph - N/A   Partly Cloudy
7:53 AM 70.0 °F - 66.0 °F 87% 30.20 in 10.0 mi Calm Calm - N/A   Clear
8:53 AM 75.9 °F - 66.9 °F 74% 30.21 in 10.0 mi NE 3.5 mph - N/A   Clear
9:53 AM 82.9 °F 82.6 °F 57.9 °F 42% 30.20 in 10.0 mi Variable 4.6 mph - N/A   Clear
10:53 AM 84.9 °F 83.7 °F 55.9 °F 37% 30.19 in 10.0 mi SSE 5.8 mph - N/A   Clear
11:53 AM 88.0 °F 85.9 °F 54.0 °F 31% 30.18 in 10.0 mi South 15.0 mph 21.9 mph N/A   Partly Cloudy
12:53 PM 91.0 °F 88.5 °F 53.1 °F 27% 30.16 in 10.0 mi ESE 13.8 mph 17.3 mph N/A   Clear
1:53 PM 90.0 °F 87.5 °F 53.1 °F 28% 30.14 in 10.0 mi SSW 12.7 mph 16.1 mph N/A   Partly Cloudy
2:53 PM 89.1 °F 86.7 °F 53.1 °F 29% 30.12 in 10.0 mi SSW 9.2 mph 17.3 mph N/A   Clear
3:53 PM 89.1 °F 86.7 °F 53.1 °F 29% 30.10 in 10.0 mi South 10.4 mph - N/A   Clear
4:53 PM 88.0 °F 85.7 °F 53.1 °F 30% 30.09 in 10.0 mi South 8.1 mph - N/A   Clear
5:53 PM 86.0 °F 84.7 °F 55.9 °F 36% 30.09 in 10.0 mi South 9.2 mph - N/A   Clear
6:53 PM 82.0 °F 81.7 °F 57.0 °F 42% 30.10 in 10.0 mi South 10.4 mph - N/A   Clear
7:53 PM 78.1 °F - 54.0 °F 43% 30.11 in 10.0 mi South 3.5 mph - N/A   Clear
8:53 PM 75.0 °F - 54.0 °F 48% 30.11 in 10.0 mi South 3.5 mph - N/A   Clear
9:53 PM 69.1 °F - 55.9 °F 63% 30.12 in 10.0 mi Calm Calm - N/A   Clear
10:53 PM 64.9 °F - 55.9 °F 73% 30.13 in 10.0 mi Calm Calm - N/A   Clear
11:53 PM 63.0 °F - 55.9 °F 78% 30.13 in 10.0 mi Calm Calm - N/A   Clear